ALOS-4 (DAICHI-4)

Last updated on Tue Jan 14 2025 00:02:26 GMT+0000 (Coordinated Universal Time)

1 60182U 24123A 25013.53532547 .00003095 00000+0 42116-3 0 9997 2 60182 97.9204 113.1643 0001455 102.9351 257.2023 14.79465036 29046
UTC large
Height (km)
Speed (km/s)
/
Latitude / Longitude
Inclination (degrees)
Orbital Period (minutes)
Azimuth
Elevation
Range (km)
Doppler Factor

Next 0 passes for location: London (51.5072 / 0.1276)

Sorry there are no passes over London.